Location: El Bakhil
(32.7726°N, 5.5387°W)
Time: 01:47:33
(UTC+00:00)

DIWATA 2B (PO-101) - Pass Details

Date: 05 August 2021
Orbit: 584 x 600 km, 97.9° (Epoch: 19 September)

Event Time Altitude Azimuth Distance (km) Brightness Sun altitude
Exits shadow 02:13:45 11° 340° (NNW) 1,908 ? -34.3°
Drops below altitude 10° 02:13:50 10° 340° (NNW) 1,944 ? -34.2°
Sets 02:16:02 0° 344° (NNW) 2,851 ? -34.0°
